SL-16 DEB, 29100

Orbit data source: Space-Track

SL-16 DEB, 29100 is space debris in LEO originally from a launch on Fri, 26 Mar 1993 UTC launched from the Tyuratam Missile And Space Complex (TTMTR). Debris objects in space refer to the collection of defunct objects orbiting the Earth. Examples of debris include non-operational satellites, rocket bodies, and fragments generated from explosions, collisions, or faulty payload assembly.

Loading next visibility...
Identifier
29100, 1993-016AP
Orbit
LEO
Country
Flag of CISCIS
Related business
Manufacturer
Unknown
Mission
Spacecraft
Bus & Motor
Unknown
Mass
Unknown
Launch date (UTC)
1993-03-26 (33 years ago)
Launch vehicle
Unknown
Launch site
Tyuratam Missile And Space Complex (TTMTR)
Object type
Payload
Rocket body
Debris
Shape & HBR
Unknown shape, 0.1 m
Radar Cross Section
Small (<0.1 m²)

Expand to show TLE details & history
Last TLE update: 4 months ago

TLE from 4 months ago
0 SL-16 DEB
1 29100U 93016AP  26004.88118916  .00001626  00000-0  89080-3 0  9998
2 29100  70.7285  58.9805 0075353 315.0865  44.4172 14.12007222208361
Epoch: 2026-01-04T21:08Z
TLE epoch observation values (Epoch: 2026-01-04T21:08:54.743Z)
Latitude
-0.00005°
Longitude
-2.73396°
Altitude
816.171 km
Speed
7.465 km/s
True Right ascension
03h 55m 55s
True Declination
0° 00' 00"
Sunlit
Object was in full shadow at epoch
Visualization orbit readout
Latitude
Unknown
Longitude
Unknown
Altitude
Unknown
Speed
Unknown
Apparent Right ascension
Unknown
Apparent Declination
Unknown
Sunlit
N/A
Visualization observer readout
Local Sidereal Time
19:41:25
Azimuth
Unknown
Elevation
Unknown
Doppler factor
Unknown
Orbital elements
Apogee altitude
904.935 km
Perigee altitude
795.996 km
Semi-major axis
7,228.603 km
Eccentricity
0.00754
Inclination
70.7285°
RAAN
58.9805°
Arg. of periapsis
315.0865°
True anomaly
45.02561°
Mean anomaly
44.4172°
Eccentric anomaly
44.721°
Mean motion
3.53152 °/min
Orbital period
101.94 mins
BSTAR
0.0008908
Loading maneuver chart data...
Computing Atmospheric mass density...
Loading historical data...
Loading historical data...
Loading historical data...
Loading historical data...
Loading historical data...
Loading historical data...
Loading historical data...

Documentation

Showing up to 5 results
|